Theta_e
330 332 333 332 331 330 330 331 329 329 331 330 330 330 329 328 328 326 327 328 328 327 327 327 325 325 326 327 327 327 324 326 326 328 327 325 325 324 325 324 325 326 325
330 332 333 332 331 330 331 331 330 330 330 330 330 330 330 330 327 328 328 328 329 329 326 326 327 327 326 328 328 328 328 328 327 328 326 326 326 326 326 326 325 326 324
330 331 332 332 332 331 331 329 331 330 330 331 330 330 330 329 328 328 327 328 324 329 326 324 328 329 327 327 328 328 328 328 327 327 326 326 326 325 324 324 325 325 322
329 330 332 332 332 331 331 331 330 330 329 330 330 330 330 329 328 327 326 326 323 328 326 328 328 331 329 329 330 329 328 328 327 326 325 325 326 326 325 325 325 324 322
329 329 332 331 331 330 331 331 329 330 325 328 327 329 325 325 325 324 322 323 323 325 326 327 328 329 329 329 329 328 328 328 326 326 325 325 325 325 325 326 325 323 323
328 329 331 331 331 331 331 331 330 326 325 325 327 327 325 325 325 324 322 325 326 325 327 327 328 328 328 328 328 328 328 327 327 327 325 325 325 325 325 325 324 321 319
327 328 330 331 330 331 330 330 331 328 326 325 326 326 325 325 327 327 326 326 327 326 326 327 327 327 327 327 327 328 327 326 327 327 325 325 325 326 326 326 323 315 320
326 327 328 330 330 331 328 329 330 329 328 327 325 326 327 326 326 326 325 328 328 326 326 326 327 327 327 327 328 326 327 326 326 326 326 325 326 326 325 325 318 321 318
325 326 327 329 331 330 327 327 330 329 328 328 327 326 326 327 326 326 326 327 328 327 327 327 327 327 327 327 325 327 326 326 326 326 326 325 325 325 325 326 322 321 321
324 325 326 329 331 331 329 327 328 329 330 328 327 327 326 327 326 326 327 327 326 326 325 326 327 327 324 325 326 326 326 326 326 326 326 325 325 326 326 326 321 323 324
323 324 325 328 331 332 330 327 328 327 330 328 327 326 326 327 326 325 325 325 326 324 324 325 325 324 323 323 323 324 326 326 327 327 326 326 324 319 320 323 323 327 325
323 323 325 326 329 331 331 328 326 327 327 328 328 326 326 326 326 325 325 325 324 323 325 322 322 323 322 321 320 320 321 319 322 322 323 322 323 323 323 322 322 322 322
324 324 325 326 327 331 331 328 326 325 324 326 331 329 325 325 327 326 325 323 324 325 327 326 323 322 322 323 323 321 321 324 324 325 325 324 323 321 317 317 317 318 318
325 325 325 326 325 329 330 329 326 324 321 322 325 330 330 328 326 326 325 325 325 327 327 325 323 323 324 325 324 323 324 324 324 323 319 314 314 314 315 316 318 318 319
326 326 326 325 325 327 329 329 328 327 323 319 322 325 329 331 329 326 326 326 326 329 327 325 324 325 323 323 322 321 321 319 318 315 313 313 314 314 315 317 317 318 316
326 326 326 325 324 325 325 328 328 328 325 321 319 321 323 327 328 325 325 325 325 327 327 328 327 325 322 322 322 322 321 318 320 319 317 316 316 316 316 316 316 317 316
323 326 326 325 324 324 324 325 325 325 326 324 320 315 320 317 319 326 326 326 327 327 329 329 327 324 322 320 320 321 320 320 319 319 319 318 317 316 315 316 316 316 314
328 325 325 324 324 323 324 323 322 322 323 324 320 318 318 316 313 315 319 323 325 325 326 326 326 325 322 320 320 320 320 321 320 320 320 319 318 316 315 316 316 315 313
330 327 325 325 324 322 323 323 321 321 321 322 322 318 317 318 320 317 315 318 320 320 320 321 322 321 321 321 321 320 319 320 320 319 319 319 317 316 316 315 316 314 311
330 328 326 326 325 323 322 323 322 322 322 322 322 322 319 316 318 321 319 317 319 318 318 319 320 321 321 321 320 320 320 319 318 318 318 318 317 316 316 316 315 311 310
330 328 326 327 326 325 323 322 322 322 323 323 323 323 321 314 319 320 322 321 320 321 320 318 316 317 318 319 320 319 318 318 318 317 317 317 317 316 316 316 316 311 311
330 329 326 327 327 326 325 322 322 322 323 323 323 323 322 319 319 319 320 321 321 321 321 321 319 318 316 316 317 317 317 317 317 317 316 316 316 315 315 315 313 310 310
329 329 327 327 327 327 326 325 323 322 323 323 323 323 324 323 322 321 321 321 322 321 321 321 320 320 318 317 316 315 315 315 316 316 316 316 315 315 314 313 311 309 310
329 329 328 327 327 327 327 326 326 324 323 323 323 322 323 324 324 323 322 323 324 324 323 322 321 320 319 319 318 318 316 315 315 315 315 315 315 315 314 312 309 308 309
329 329 329 328 328 327 327 327 327 327 325 324 324 324 323 324 325 324 324 324 325 326 325 324 323 321 318 317 318 319 318 317 316 318 318 317 316 315 313 310 309 308 309
328 329 329 329 328 328 328 328 328 328 327 327 326 326 326 326 326 326 325 325 326 326 326 325 323 322 322 320 317 318 317 315 314 315 317 317 316 315 314 312 309 310 309
Wind_Speed
9 7 5 1 1 3 3 3 3 4 6 9 8 8 10 10 10 9 8 9 8 8 7 9 11 15 11 10 19 14 13 12 17 18 26 39 45 45 44 43 38 34 29
10 7 5 2 1 4 4 3 2 5 5 10 9 7 8 10 10 9 8 8 7 7 10 12 14 14 14 11 14 13 12 15 14 20 39 41 40 42 42 40 34 28 25
11 8 6 3 2 3 4 4 4 5 7 8 9 9 8 8 8 8 8 8 9 6 6 10 11 14 16 12 13 13 12 12 19 36 44 43 42 41 38 33 30 26 26
11 10 7 4 4 4 5 5 6 6 7 8 10 10 9 9 8 8 9 9 11 8 8 9 10 11 11 11 11 12 13 18 30 36 42 42 39 36 34 31 25 24 22
12 11 9 7 5 6 6 5 7 8 7 9 11 10 10 10 9 9 11 10 11 10 9 11 11 12 12 11 10 11 14 22 29 34 40 38 38 35 33 28 26 25 26
13 12 10 9 7 6 6 5 7 9 9 9 10 11 12 11 10 11 11 9 9 10 12 12 11 11 11 11 9 10 15 21 30 35 42 40 38 35 33 26 24 24 21
14 12 12 11 8 6 5 5 6 9 10 10 11 11 13 12 12 13 10 8 7 10 13 12 12 12 9 10 10 13 14 14 21 31 40 39 36 34 29 24 18 22 19
15 14 13 12 10 8 6 6 6 10 7 7 12 13 13 15 16 13 10 11 11 14 15 14 14 11 10 12 13 16 15 21 22 25 34 36 34 32 23 18 22 17 15
17 15 14 14 12 10 8 6 6 7 6 8 12 16 14 16 15 10 11 13 15 14 14 16 19 20 21 18 20 20 20 21 21 23 25 32 29 22 20 21 19 16 17
19 17 15 15 13 11 9 7 7 6 7 5 10 17 16 17 16 14 13 10 17 21 19 16 19 21 22 18 22 25 25 25 24 26 25 26 24 16 15 14 16 13 13
20 18 16 16 15 12 11 8 9 8 7 8 15 20 16 17 17 15 13 15 18 23 21 19 26 20 17 19 18 23 22 26 26 27 26 23 21 19 19 13 14 8 10
21 20 18 17 16 14 13 11 10 9 9 10 15 15 15 18 20 18 19 18 20 20 16 20 18 16 19 19 20 19 20 23 19 19 18 18 18 15 16 18 18 17 18
23 22 20 18 18 16 15 13 11 11 9 10 11 12 16 17 21 19 19 20 17 17 15 14 16 18 17 17 17 18 19 14 14 16 16 16 15 16 17 15 15 14 12
25 23 22 20 19 18 17 15 13 12 12 11 11 12 12 14 20 24 23 19 18 15 17 17 17 17 16 18 18 18 13 15 15 15 15 17 16 16 16 15 14 14 13
26 24 23 22 22 19 19 17 16 14 13 13 12 12 14 13 15 22 25 23 22 17 18 19 15 14 15 16 16 16 14 16 16 16 17 16 17 18 16 16 15 14 10
29 26 25 23 23 21 21 19 21 18 18 18 17 14 13 13 15 18 22 24 25 23 21 16 16 16 16 16 16 16 15 16 15 15 16 16 15 15 14 15 13 12 12
33 29 26 25 23 23 22 22 20 24 20 19 17 18 17 17 16 18 21 21 20 20 17 17 17 18 18 18 18 18 17 17 18 17 16 15 15 14 18 15 14 13 12
34 31 28 28 24 24 23 22 21 20 23 23 24 21 20 17 18 19 20 21 23 24 18 18 19 19 20 19 19 18 18 18 19 17 17 17 17 17 16 15 14 14 14
35 32 29 26 25 25 23 22 22 21 21 21 21 27 26 25 23 22 22 22 20 21 21 20 19 20 20 20 20 20 20 20 20 21 20 20 20 18 18 17 18 20 21
35 35 35 27 26 26 25 24 23 22 22 22 24 23 29 31 31 31 30 29 23 23 23 23 22 21 21 21 21 21 21 23 24 23 23 22 22 22 21 20 21 21 25
34 35 37 30 28 27 27 27 26 25 24 24 23 23 27 32 29 28 29 31 30 25 24 24 24 24 24 23 23 24 24 24 25 25 24 24 24 24 23 23 23 26 27
32 33 39 35 29 28 28 27 28 28 27 26 24 23 28 26 26 27 27 27 28 28 26 25 24 24 25 26 26 26 27 27 27 27 27 27 27 25 24 24 26 32 28
30 32 33 35 33 31 30 28 28 29 29 28 27 26 29 29 28 26 26 26 25 26 27 28 27 27 26 26 26 27 28 28 27 27 27 28 27 27 26 28 33 30 30
29 31 31 34 35 32 32 31 29 29 28 28 28 29 29 28 29 30 28 26 25 25 25 26 28 29 28 28 28 28 28 27 26 26 28 26 25 28 25 29 29 29 32
28 28 30 30 33 37 33 33 32 31 30 30 29 29 29 28 26 28 28 29 27 26 26 26 26 27 30 31 30 29 29 32 30 27 24 26 25 27 28 28 27 34 38
28 27 27 27 29 31 33 32 33 33 32 31 32 31 31 31 30 27 27 28 29 28 27 27 29 29 27 26 28 30 31 30 29 31 32 28 24 25 28 29 32 35 33
Wind_Direction
170 168 165 162 237 172 160 154 157 147 148 158 159 158 155 156 164 175 170 174 178 169 161 149 144 148 153 135 150 154 168 177 185 176 160 142 141 139 143 144 153 158 158
171 162 150 122 166 173 141 117 122 137 142 156 157 155 150 157 160 163 162 171 165 157 155 149 154 159 136 136 142 156 181 191 193 173 156 147 145 145 147 152 157 163 158
169 164 150 126 132 152 138 125 116 123 133 146 162 163 153 150 151 157 166 169 185 164 161 165 150 156 158 144 149 155 154 145 158 150 146 154 148 152 155 158 157 157 152
169 167 164 142 137 145 140 116 124 123 132 142 151 157 159 153 154 163 175 172 171 163 170 147 154 171 163 158 158 157 155 146 147 143 150 153 153 157 151 146 142 144 145
173 171 171 158 142 127 109 111 132 126 139 139 154 147 164 161 162 166 161 167 174 183 174 170 166 155 160 165 158 159 156 154 161 159 157 159 155 155 150 156 146 152 141
175 175 174 173 170 156 134 110 126 141 131 141 147 154 156 155 155 155 161 169 168 162 163 168 158 149 146 146 152 155 156 157 169 169 165 162 161 159 160 151 152 146 139
177 177 176 176 176 165 160 144 139 137 142 141 150 157 153 150 147 143 147 151 156 169 167 157 145 141 154 161 160 153 162 176 171 179 167 165 161 159 149 150 145 154 158
179 180 179 176 177 173 157 155 134 147 143 160 168 162 156 153 142 133 127 130 134 130 149 148 145 138 145 152 144 142 167 152 170 170 165 164 158 155 163 157 149 165 172
183 183 182 177 175 174 165 156 147 145 145 140 167 173 165 159 151 146 142 133 129 132 138 142 138 121 120 124 139 138 137 141 144 158 162 160 162 158 164 170 163 156 160
186 183 182 179 178 176 171 160 151 141 130 129 161 167 167 165 146 146 133 137 138 130 122 122 153 136 130 118 127 128 132 131 133 147 149 152 171 168 176 166 166 170 174
184 182 182 180 180 180 176 167 156 137 131 118 124 147 152 155 148 142 137 140 144 130 118 118 128 129 133 132 133 137 135 137 139 145 155 163 165 169 168 166 177 200 195
183 183 183 182 179 183 182 172 161 154 135 134 136 152 162 167 159 153 143 148 137 139 133 133 128 129 133 135 139 147 148 144 138 141 146 152 159 165 181 189 192 192 191
184 184 185 183 182 186 184 179 171 164 158 146 144 147 170 171 174 165 156 156 149 142 141 144 141 142 144 144 145 147 149 142 147 150 155 161 166 184 188 193 200 206 213
184 184 186 186 185 188 188 190 185 180 178 170 164 162 165 172 182 178 172 168 170 162 169 159 154 154 150 153 154 154 154 158 160 167 168 179 180 184 190 198 203 204 212
186 186 187 189 189 192 190 195 194 196 187 185 180 174 170 174 184 182 188 186 179 176 168 169 168 167 171 175 180 183 182 181 182 186 189 187 191 195 197 197 196 199 209
185 188 191 190 193 195 195 200 198 199 202 187 188 178 184 184 193 177 178 180 180 188 182 184 186 186 188 191 192 194 195 195 190 189 190 190 190 191 195 199 201 202 204
186 189 192 190 196 195 197 200 202 206 208 203 198 190 185 198 188 181 183 184 182 182 184 193 196 197 198 199 201 202 203 203 198 197 197 198 198 198 208 203 205 208 207
193 194 189 190 197 197 199 200 200 203 204 206 203 200 196 197 199 198 194 193 196 198 200 205 205 205 204 206 207 208 207 208 205 203 205 206 207 207 211 211 212 212 207
194 196 194 195 199 198 199 199 199 201 203 205 205 206 204 201 200 204 209 210 210 214 213 211 213 213 213 212 213 213 213 212 212 213 212 213 218 217 220 216 216 213 214
197 199 195 197 199 200 201 200 200 200 201 202 206 210 208 206 208 210 213 213 215 220 222 222 220 219 219 219 219 218 219 217 221 222 220 222 225 226 221 219 217 218 221
196 201 202 198 200 203 203 205 204 204 205 206 209 209 211 212 211 214 218 219 220 220 224 227 227 227 226 223 223 223 223 224 225 227 226 226 227 225 223 221 217 227 226
194 197 202 200 203 205 206 207 208 209 210 211 211 214 220 219 214 219 221 225 225 225 226 229 230 230 230 229 227 227 227 228 228 231 231 229 228 227 224 219 214 226 229
198 196 201 200 205 207 207 208 210 212 213 213 213 212 220 220 217 221 224 224 226 226 227 226 228 230 231 232 232 230 231 232 233 233 233 231 227 226 224 219 223 229 221
204 202 204 201 203 207 208 209 212 214 216 216 216 216 220 220 221 221 224 228 228 229 228 228 229 229 229 227 231 233 234 235 235 237 238 234 232 231 220 227 229 225 221
208 206 207 207 206 206 209 211 213 216 218 218 220 221 220 224 223 223 224 225 230 231 231 232 233 237 239 233 231 233 235 239 242 239 235 237 229 227 231 232 228 224 226
210 213 211 211 212 213 210 212 213 215 218 221 222 224 225 224 225 226 225 225 227 230 232 235 241 243 245 245 242 237 240 249 251 247 247 244 231 223 235 233 228 236 225